Погода в Каховке

Украина / Херсонская область     46°48′24″N   33°28′51″E
темп.,
°C
ветер,
м/с
пор.,
м/с
влажн.,
%
обл.,
%
осадки,
мм/ч
давл.,
гПа
погр.,
м
8 декабря, ср
ср823:00+9в4790100 0.0 1005150
02:00+9в3791100 0.0 1004171
05:00+8в5987100 0.0 1003224
08:00+7в4692100 0.0 1004163
11:00+10всв5681100 0.0 1003218
14:00+11всв2377100 0.0 1003166
17:00+10всв3385100 0.0 100424
20:00+10юз358598 0.1 1005112
9 декабря, чт
чт923:00+8ююз599585 0.0 1007249
02:00+9ю5778100 0.1 1008461
05:00+8вюв4692100 0.4 1008319
08:00+9всв2397100 1.9 1010102
11:00+8зсз4792100 0.8 1012344
14:00+9зюз4686100 1.1 1014362
17:00+8зюз3586100 0.0 1016201
20:00+8юз4683100 0.0 1017298
10 декабря, пт
пт1023:00+6юз36907 0.0 1019158
02:00+6ююв23913 0.0 101947
05:00+6юв359310 0.0 101994
08:00+6юв499694 0.0 1020181
11:00+8юв51080100 0.0 1020325
14:00+10вюв61069100 0.0 1018303
17:00+9вюв61284100 0.0 1018213
20:00+8вюв71588100 0.0 1017262
11 декабря, сб
сб1123:00+9вюв81690100 0.0 1017341
02:00+9юв81690100 0.0 1017420
05:00+8юв5109398 0.0 1018224
08:00+8юв5793100 0.2 1019145
11:00+12ююв57750 0.0 1020397
14:00+12ююв4670100 0.0 1020515
17:00+9вюв588690 0.0 1022152
20:00+7вюв51192100 0.0 1023207
12 декабря, вс
вс1223:00+7вюв61292100 0.0 1023244
02:00+6в61391100 0.0 1023296
05:00+6в81585100 0.0 1022379
08:00+6в91881100 0.0 1022449
11:00+7в101874100 0.0 1020469
14:00+7вюв101872100 0.0 1019477
17:00+6вюв101876100 0.0 1019462
20:00+6вюв91876100 0.0 1018470